Location: Newark
(43.0000°N, 1.6781°W)
Time: 10:42:17
(UTC+00:00)

Explorer 7 - Pass Details

Date: 22 April 2021
Orbit: 484 x 677 km, 50.3° (Epoch: 07 May)

Event Time Altitude Azimuth Distance (km) Brightness Sun altitude
Rises 23:58:21 0° 299° (WNW) 2,781 10.8 -34.8°
Enters shadow 23:59:49 - 302° (WNW) 2,215 10.3 -34.8°
Reaches altitude 10° 00:00:37 10° 305° (NW) 1,914 - -34.8°
Maximum altitude 00:04:54 50° 21° (NNE) 789 - -34.8°
Drops below altitude 10° 00:09:26 10° 97° (E) 2,024 - -34.8°
Sets 00:11:53 0° 103° (ESE) 2,959 - -34.8°
